This is the latest recevied weather packets stored in our database for station/object NW5W-12. If no packets are shown the sender has not sent any weather packets the latest 1 day(s).
| Time | Temp. | Humidity | Pressure | Rain* | Wind** | Luminosity | Snow |
|---|---|---|---|---|---|---|---|
| 1836274626 | 16.67° C | 41% | 1020.5 hPa | 0 mm | 0 m/s | - | - |
| 1836274625 | 16.67° C | 42% | 1020.5 hPa | 0 mm | 0.89 m/s, 116° | - | - |
| 1836274476 | 16.67° C | 42% | 1020.5 hPa | 0 mm | 0.45 m/s, 96° | - | - |
| 1836274476 | 17.78° C | 47% | 0 hPa | 0 mm | 0 m/s | - | - |
| 1836274326 | 17.22° C | 41% | 1020.4 hPa | 0 mm | 0 m/s | - | - |
| 1836274325 | 18.33° C | 46% | 0 hPa | 0 mm | 0 m/s | - | - |
| 1836274175 | 17.78° C | 47% | 0 hPa | 0 mm | 0 m/s | - | - |
| 1836274175 | 16.67° C | 43% | 1020.5 hPa | 0 mm | 0 m/s | - | - |
| 1836274026 | 17.22° C | 40% | 1020.4 hPa | 0 mm | 0.45 m/s, 99° | - | - |
| 1836274025 | 18.33° C | 46% | 0 hPa | 0 mm | 0 m/s | - | - |
| 1778060442 | 3.89° C | 92% | 1014.6 hPa | 3.56 mm | 2.68 m/s, 313° | - | - |
| 1778059842 | 3.89° C | 92% | 1014.5 hPa | 3.56 mm | 3.13 m/s, 321° | - | - |
| 1778059542 | 3.89° C | 94% | 1014.5 hPa | 3.81 mm | 3.13 m/s, 313° | - | - |
| 1778059242 | 3.89° C | 94% | 1014.5 hPa | 3.81 mm | 1.79 m/s, 267° | - | - |
| 1778058942 | 3.89° C | 93% | 1014.6 hPa | 3.3 mm | 1.34 m/s, 335° | - | - |
| 1778058642 | 3.89° C | 93% | 1014.6 hPa | 3.3 mm | 0.45 m/s, 258° | - | - |
| 1778058342 | 4.44° C | 92% | 1014.8 hPa | 3.05 mm | 4.02 m/s, 4° | - | - |
| 1778058042 | 5° C | 90% | 1014.5 hPa | 2.54 mm | 5.36 m/s, 340° | - | - |
| 1778057742 | 5° C | 87% | 1014.5 hPa | 1.52 mm | 3.13 m/s, 333° | - | - |
| 1778057442 | 5.56° C | 85% | 1014.3 hPa | 1.27 mm | 2.24 m/s, 260° | - | - |
| 1778057142 | 5.56° C | 83% | 1014.1 hPa | 0.25 mm | 0.89 m/s, 221° | - | - |
| 1778056842 | 5.56° C | 83% | 1014 hPa | 0 mm | 1.79 m/s, 195° | - | - |
| 1778056542 | 5.56° C | 83% | 1013.6 hPa | 0 mm | 1.34 m/s, 201° | - | - |
| 1778056242 | 5.56° C | 83% | 1013.5 hPa | 0 mm | 1.79 m/s, 188° | - | - |
| 1778055942 | 5.56° C | 82% | 1013.5 hPa | 0 mm | 0.45 m/s, 184° | - | - |
* Rain since midnight (hover to see other rain measurements)
** Current wind speed in m/s (hover to see current wind gust speed)